Weather Roundup
Issued by NWS

Home | Current Version | Previous Version | Text Only | Print | Product List | Glossary On
Versions: 1 2 3 4 5 6 7 8 9 10 11 12 13 14 15 16 17 18 19 20 21 22 23 24 25 26 27 28 29 30 31 32 33 34 35 36 37 38 39 40 41 42 43 44 45 46 47 48 49 50
001
NZUS93 KARX 280110
HRRWXR

CURRENT HOURLY OBSERVATIONS ACROSS
MUCH OF THE UPPER MISSISSIPPI VALLEY
NATIONAL WEATHER SERVICE LA CROSSE WI
800 PM CDT THU JUL 27 2017


...SOUTHEAST MINNESOTA...


CITY           SKY/WX    TMP DP  RH WIND       PRES   REMARKS
ROCHESTER      CLEAR     75  62  64 N7        30.03S
ROCHESTER/MAYO FAIR      78  59  51 N5        30.03S
WINONA         CLEAR     79  63  57 CALM      30.00S
AUSTIN         CLEAR     77  63  61 CALM      30.02S
ALBERT LEA     CLEAR     77  64  65 NE3       30.03S
DODGE CENTER   CLEAR     73  63  68 CALM      30.03S
PRESTON        CLEAR     74  63  69 N3        30.03S
OWATONNA       CLEAR     77  64  65 NE3       30.03S
FARIBAULT      CLEAR     75  66  73 CALM      30.03S
$$

...ELSEWHERE IN MINNESOTA...


CITY           SKY/WX    TMP DP  RH WIND       PRES   REMARKS
MINNEAPOLIS    PTCLDY    82  57  42 NE8       30.02S
INTNL FALLS    CLEAR     74  61  63 W6        30.06S
DULUTH         PTCLDY    66  56  70 NE12      30.09R
RED WING       CLEAR     77  64  65 CALM      30.00S
REDWOOD FALLS  CLEAR     79  60  52 CALM      30.04S
MANKATO        CLEAR     78  63  59 N6        30.04S
WORTHINGTON    CLEAR     76  62  62 NE5       30.07F
FAIRMONT       CLEAR     76  64  66 N6        30.04S
$$

...SOUTHWEST WISCONSIN...


CITY           SKY/WX    TMP DP  RH WIND       PRES   REMARKS
LA CROSSE      CLEAR     80  67  64 N5        29.97F
PRAIRIE DU CHI CLEAR     79  63  58 CALM      29.97S
BOSCOBEL       MOCLDY    82  66  58 CALM      29.98R
LONE ROCK      PTCLDY    75  66  73 NE5       29.98R
PLATTEVILLE    CLEAR     76  65  69 CALM      29.99S
FORT MC COY    PTCLDY    75  66  72 CALM      30.00R
CAMP DOUGLAS   CLEAR     75  65  71 E7        30.00R
MAUSTON-NEW LI CLEAR     76  65  69 CALM      29.99S
VIROQUA        CLOUDY    74  66  75 E3        30.01S
WIS DELLS      CLEAR     75  60  60 CALM      30.00S
$$

...ELSEWHERE IN WISCONSIN...


CITY           SKY/WX    TMP DP  RH WIND       PRES   REMARKS
MILWAUKEE      MOCLDY    72  59  63 N16G23    29.97F
MADISON        PTCLDY    74  59  59 NE8       29.98S
GREEN BAY      PTCLDY    72  63  73 NE10      30.01R
EAU CLAIRE     CLEAR     77  63  61 N3        30.00S
BLACK RVR FLS  FAIR      79  61  53 CALM      29.99S
MEDFORD        PTCLDY    73  59  62 E7        30.03S
WAUSAU         PTCLDY    72  60  66 E3        30.01S
WIS RAPIDS     PTCLDY    74  61  63 SE5       30.02S
MARSHFIELD     PTCLDY    76  59  55 E6        30.01S
RICE LAKE      CLEAR     75  60  58 N6        30.05R
$$

...NORTHEAST IOWA...


CITY           SKY/WX    TMP DP  RH WIND       PRES   REMARKS
WATERLOO       CLEAR     77  65  66 NE5       29.97F
DUBUQUE        CLEAR     75  62  64 NE6       29.99S
DECORAH        CLEAR     77  64  65 NE3       29.99F
MASON CITY     CLEAR     76  66  71 N7        30.03S
CHARLES CITY   CLEAR     77  66  69 N5        30.01S
OELWEIN        CLEAR     75  68  78 NE3       30.00S
$$

...ELSEWHERE IN IOWA...


CITY           SKY/WX    TMP DP  RH WIND       PRES   REMARKS
DES MOINES     PTCLDY    81  57  43 NE9       29.97S
IOWA CITY      CLEAR     81  65  58 NE10      29.96S
FORT DODGE     MOCLDY    79  64  61 N6        30.02S
MARSHALLTOWN   CLEAR     78  66  66 NE6       29.98S
CEDAR RAPIDS   NOT AVBL
$$

...NORTHERN ILLINOIS...


CITY           SKY/WX    TMP DP  RH WIND       PRES   REMARKS
CHICAGO-OHARE  PTCLDY    74  57  55 N15       29.95R
CHICAGO-MIDWAY PTCLDY    74  62  66 N18       29.94R
MOLINE         CLEAR     80  63  55 NE10      29.93S
ROCKFORD       PTCLDY    78  59  51 NE10      29.97S
PEORIA         PTCLDY    79  70  74 NE14      29.91R
$$

NOTE: "FAIR" INDICATES FEW OR NO CLOUDS BELOW 12,000 FEET WITH NO
SIGNIFICANT WEATHER AND/OR OBSTRUCTIONS TO VISIBILITY. WIND
SPEEDS ARE IN MILES-PER-HOUR.




USA.gov is the U.S. government's official web portal to all federal, state and local government web resources and services.